Ketchikan, AK

4:51 PM AKDT on September 24, 2018 (GMT -0800)
Ketchikan International

Weather History for PAKT - July, 2018

Change the Weather History Date:

Thursday, July 5, 2018

  Actual Average Record
Temperature  
Mean Temperature 68 °F -  
Max Temperature 75 °F 65 °F 82 °F (1972)
Min Temperature 60 °F 49 °F 42 °F (1991)
Cooling Degree Days 2    
Growing Degree Days 18 (Base 50)    
Moisture  
Dew Point 53 °F    
Average Humidity 64    
Maximum Humidity 87    
Minimum Humidity 44    
Precipitation  
Precipitation 0.00 in - - ()
Sea Level Pressure  
Sea Level Pressure 30.00 in    
Wind  
Wind Speed 10 mph (SE)    
Max Wind Speed 24 mph    
Max Gust Speed 33 mph    
Visibility 10 miles    
Events Rain    
Averages and records for this station are not official NWS values.
T = Trace of Precipitation, MM = Missing Value Source: NWS Daily Summary

Daily Weather History Graph

Daily Weather History Graph

Search for Another Location

Airport or City:

Astronomy

Jul. 05, 2018 Rise Set
Actual Time 4:13 AM AKDT 9:28 PM AKDT
Civil Twilight 3:16 AM AKDT 10:25 PM AKDT
Nautical Twilight 1:23 AM AKDT 12:19 AM AKDT
Astronomical Twilight Sun does not set Sun does not set
Moon 12:27 AM AKDT (7/5) 12:20 PM AKDT (7/5)
Length of Visible Light 19h 09m
Length of Day
17h 14m
Waning Gibbous, 55% of the Moon is Illuminated
Jul 5
Waning Gibbous
Jul 5
Last Quarter
Jul 12
New
Jul 19
First Quarter
Jul 27
Full

Hourly Weather History & Observations

Time (AKDT) Temp. Dew Point Humidity Pressure Visibility Wind Dir Wind Speed Gust Speed Precip Events Conditions
12:53 AM 62.1 °F 53.1 °F 72% 30.00 in 10.0 mi Calm Calm - N/A   Clear
1:53 AM 62.1 °F 52.0 °F 70% 30.00 in 10.0 mi NNW 3.5 mph - N/A   Clear
2:53 AM 62.1 °F 51.1 °F 67% 29.99 in 10.0 mi WNW 6.9 mph - N/A   Clear
3:53 AM 62.1 °F 51.1 °F 67% 29.98 in 10.0 mi WNW 6.9 mph - N/A   Clear
4:53 AM 60.1 °F 53.1 °F 78% 29.96 in 10.0 mi NW 8.1 mph - N/A   Clear
5:53 AM 62.1 °F 53.1 °F 72% 29.96 in 10.0 mi NW 8.1 mph - N/A   Clear
6:04 AM 63.0 °F 53.1 °F 70% 29.96 in 10.0 mi NW 8.1 mph - N/A   Clear
6:53 AM 66.0 °F 53.1 °F 63% 29.96 in 10.0 mi NW 10.4 mph - N/A   Clear
7:53 AM 69.1 °F 53.1 °F 57% 29.96 in 10.0 mi NW 8.1 mph - N/A   Clear
8:53 AM 69.8 °F 53.6 °F 56% 29.96 in 10.0 mi NW 8.1 mph - N/A   Clear
9:53 AM 71.6 °F 53.6 °F 53% 29.96 in 10.0 mi NW 5.8 mph - N/A   Clear
10:14 AM 73.0 °F 53.1 °F 49% 29.97 in 10.0 mi SE 15.0 mph 20.7 mph N/A   Clear
10:33 AM 73.4 °F 51.8 °F 47% 29.98 in 10.0 mi SE 16.1 mph - N/A   Clear
10:53 AM 75.2 °F 51.8 °F 44% 29.98 in 10.0 mi SE 20.7 mph 27.6 mph N/A   Clear
11:53 AM 75.2 °F 51.8 °F 44% 30.01 in 10.0 mi SE 21.9 mph 28.8 mph N/A   Clear
12:53 PM 71.6 °F 51.8 °F 50% 30.01 in 10.0 mi SE 24.2 mph 33.4 mph N/A   Clear
1:53 PM 73.4 °F 50.0 °F 44% 30.02 in 10.0 mi SSE 18.4 mph 31.1 mph N/A   Partly Cloudy
2:53 PM 71.6 °F 51.8 °F 50% 30.02 in 10.0 mi SSE 20.7 mph 31.1 mph N/A   Partly Cloudy
3:53 PM 71.6 °F 53.6 °F 53% 30.03 in 10.0 mi SSE 18.4 mph 26.5 mph N/A   Scattered Clouds
4:53 PM 70.0 °F 54.0 °F 57% 30.02 in 10.0 mi SE 15.0 mph 25.3 mph N/A   Mostly Cloudy
5:53 PM 69.1 °F 53.1 °F 57% 30.01 in 10.0 mi SE 13.8 mph 25.3 mph N/A   Scattered Clouds
6:53 PM 68.0 °F 55.0 °F 63% 30.01 in 10.0 mi SE 15.0 mph - N/A   Scattered Clouds
7:53 PM 64.9 °F 55.0 °F 70% 30.03 in 10.0 mi SE 13.8 mph - N/A   Mostly Cloudy
8:53 PM 62.6 °F 55.4 °F 77% 30.04 in 10.0 mi SE 13.8 mph - N/A   Mostly Cloudy
9:25 PM 62.1 °F 55.9 °F 80% 30.04 in 10.0 mi SE 15.0 mph - N/A   Overcast
9:53 PM 62.1 °F 55.9 °F 80% 30.04 in 10.0 mi ESE 11.5 mph - N/A   Overcast
10:36 PM 62.1 °F 55.9 °F 80% 30.03 in 10.0 mi SE 12.7 mph - N/A   Overcast
10:53 PM 62.1 °F 55.9 °F 80% 30.04 in 10.0 mi SE 13.8 mph - N/A   Overcast
11:03 PM 62.1 °F 55.9 °F 80% 30.03 in 10.0 mi ESE 13.8 mph - N/A   Overcast
11:53 PM 61.0 °F 57.0 °F 87% 30.03 in 10.0 mi SE 12.7 mph - 0.00 in Rain Light Rain